Location: Unspecified
(0.0000°N, 0.0000°E)
Time: 17:09:52
(UTC+02:00)

Cosmos 1733 Rocket - Visible Passes

Search period start: 30 July 2014 00:00
Search period end: 09 August 2014 00:00
Orbit: 605 x 631 km, 82.5° (Epoch: 29 July)

Date Brightness Start Highest point End Pass type
(mag) Time Alt. Az. Time Alt. Az. Time Alt. Az.
30 Jul 3.4 07:21:06 10° NNW 07:25:19 45° W 07:29:34 10° SSW visible
31 Jul 6.0 06:02:05 10° NE 06:04:43 16° E 06:07:21 10° ESE visible
31 Jul 4.4 07:39:00 10° NW 07:42:15 20° W 07:45:32 10° SW visible
01 Aug 4.7 06:17:38 10° NNE 06:21:38 34° E 06:25:40 10° SSE visible
02 Aug 3.1 06:34:09 10° N 06:38:34 80° E 06:43:02 10° S visible
03 Aug 3.4 06:51:18 10° NNW 06:55:30 43° W 06:59:45 10° SSW visible
04 Aug 5.8 05:32:11 10° NE 05:34:54 16° E 05:36:40 13° ESE visible
04 Aug 4.4 07:09:14 10° NW 07:12:27 20° W 07:13:34 18° WSW visible
05 Aug 4.8 05:47:47 10° NNE 05:50:50 31° ENE 05:50:50 31° ENE visible
06 Aug 5.1 06:04:19 10° N 06:05:43 20° N 06:05:43 20° N visible
